Back to catalog

COSMOS 252 DEB *

AliveLEO
NORAD 4421·DEBRIS·🇷🇺 Russia

Launched Nov 1, 1968 from Baikonur Cosmodrome

Loading…

Next Passes (next 24 hours)

TLE

FreshSource: Space-Track

Epoch: Sep 14, 2026, 02:47 UTC

1 04421U 68097CF  26257.11659038  .00003217  00000-0  57179-3 0  9991
2 04421  62.7363 306.3739 0603995 188.2619 170.8123 13.91413469571813

Track COSMOS 252 DEB * in real time with AllMySat

Download on the App Store